Location: St. Louis
(38.6270°N, 90.1994°W)
Time: 09:03:39
(UTC-06:00)

deb Explorer IX - Pass Details

Date: 09 December 2021
Orbit: 544 x 1082 km, 38.8° (Epoch: 19 January)

Event Time Altitude Azimuth Distance (km) Brightness Sun altitude
Rises 08:43:14 0° 253° (WSW) 3,409 ? 14.1°
Reaches altitude 10° 08:45:57 10° 252° (WSW) 2,381 ? 14.5°
Maximum altitude 08:51:30 76° 168° (SSE) 738 ? 15.2°
Drops below altitude 10° 08:56:14 10° 82° (E) 2,039 ? 15.8°
Sets 08:58:25 0° 81° (E) 2,883 ? 16.1°
